Location: Sungai Ketit
(2.6833°N, 113.2333°E)
Time: 20:03:14
(UTC+00:00)

YAOGAN 1 - Pass Details

Date: 23 May 2024
Orbit: 611 x 614 km, 97.8° (Epoch: 19 June)

Event Time Altitude Azimuth Distance (km) Brightness Sun altitude
Exits shadow 11:43:52 11° 175° (S) 1,903 4.8 -17.6°
Maximum altitude 11:47:58 71° 258° (WSW) 649 2.7 -18.6°
Drops below altitude 10° 11:52:13 10° 343° (NNW) 1,963 5.7 -19.5°
Sets 11:54:24 0° 345° (NNW) 2,865 6.5 -20.0°
